Location: Catacaguana
(10.4120°N, 66.7591°W)
Time: 22:27:03
(UTC+00:00)

Cosmos 2278 - Visible Passes

Search period start: 26 February 2024 00:00
Search period end: 07 March 2024 00:00
Orbit: 841 x 850 km, 71.1° (Epoch: 25 February)

Date Brightness Start Highest point End Pass type
(mag) Time Alt. Az. Time Alt. Az. Time Alt. Az.
27 Feb 5.6 00:20:19 10° N 00:21:21 15° N 00:21:21 15° N visible
28 Feb 4.7 00:06:26 10° N 00:09:33 30° NNE 00:09:33 30° NNE visible
28 Feb 4.0 23:52:33 10° N 23:57:52 41° ENE 23:58:21 40° E visible
29 Feb 6.4 01:38:53 10° WNW 01:40:27 13° W 01:40:27 13° W visible
29 Feb 4.1 23:38:41 10° N 23:43:57 40° ENE 23:48:24 14° SE visible
01 Mar 6.4 01:24:46 10° WNW 01:27:41 14° WSW 01:30:36 10° SW visible
01 Mar 4.1 23:24:49 10° N 23:30:02 38° ENE 23:35:15 10° SE visible
02 Mar 6.4 01:10:40 10° WNW 01:13:46 15° WSW 01:16:54 10° SW visible
02 Mar 4.2 23:10:57 10° N 23:16:07 36° ENE 23:21:17 10° SE visible
03 Mar 6.4 00:56:34 10° WNW 00:59:52 16° WSW 01:03:10 10° SW visible
03 Mar 4.3 22:57:05 10° N 23:02:12 35° ENE 23:07:19 10° SE visible
04 Mar 6.4 00:42:30 10° WNW 00:45:57 17° WSW 00:49:25 10° SW visible
05 Mar 6.4 00:28:27 10° WNW 00:32:03 17° WSW 00:35:39 10° SW visible
06 Mar 6.4 00:14:24 10° WNW 00:18:09 18° WSW 00:21:54 10° SW visible
